TimeCST,TemperatureF,Dew PointF,Humidity,Sea Level PressureIn,VisibilityMPH,Wind Direction,Wind SpeedMPH,Gust SpeedMPH,PrecipitationIn,Events,Conditions,WindDirDegrees,DateUTC
12:05 AM,32.0,24.8,75,29.64,10.0,South,10.4,-,N/A,,Clear,170,2014-02-18 06:05:00
12:25 AM,32.0,24.8,75,29.63,10.0,South,10.4,-,N/A,,Clear,170,2014-02-18 06:25:00
12:45 AM,32.0,24.8,75,29.62,10.0,South,15.0,-,N/A,,Clear,190,2014-02-18 06:45:00
1:05 AM,32.0,24.8,75,29.61,10.0,South,15.0,-,N/A,,Clear,190,2014-02-18 07:05:00
1:25 AM,32.0,24.8,75,29.60,10.0,South,13.8,-,N/A,,Clear,190,2014-02-18 07:25:00
1:45 AM,30.2,24.8,80,29.59,10.0,South,9.2,-,N/A,,Clear,180,2014-02-18 07:45:00
2:05 AM,28.4,23.0,80,29.59,10.0,South,12.7,-,N/A,,Clear,190,2014-02-18 08:05:00
2:25 AM,28.4,23.0,80,29.58,10.0,SSW,11.5,-,N/A,,Clear,200,2014-02-18 08:25:00
2:45 AM,30.2,24.8,80,29.58,10.0,SSW,8.1,-,N/A,,Clear,210,2014-02-18 08:45:00
3:05 AM,28.4,23.0,80,29.57,10.0,SW,9.2,-,N/A,,Clear,220,2014-02-18 09:05:00
3:25 AM,26.6,23.0,86,29.56,10.0,SW,8.1,-,N/A,,Clear,220,2014-02-18 09:25:00
3:45 AM,28.4,23.0,80,29.55,10.0,SW,6.9,-,N/A,,Clear,220,2014-02-18 09:45:00
4:05 AM,28.4,23.0,80,29.55,10.0,SW,5.8,-,N/A,,Clear,230,2014-02-18 10:05:00
4:25 AM,28.4,23.0,80,29.55,10.0,WSW,6.9,-,N/A,,Clear,240,2014-02-18 10:25:00
4:45 AM,28.4,23.0,80,29.55,10.0,WSW,6.9,-,N/A,,Clear,250,2014-02-18 10:45:00
5:05 AM,30.2,23.0,75,29.54,10.0,North,-9999.0,-,N/A,,Clear,0,2014-02-18 11:05:00
5:25 AM,28.4,23.0,80,29.53,10.0,WSW,4.6,-,N/A,,Clear,250,2014-02-18 11:25:00
5:45 AM,28.4,23.0,80,29.53,10.0,WSW,6.9,-,N/A,,Clear,250,2014-02-18 11:45:00
6:05 AM,26.6,23.0,86,29.53,10.0,SSW,5.8,-,N/A,,Clear,200,2014-02-18 12:05:00
6:25 AM,24.8,24.8,100,29.53,10.0,SSW,4.6,-,N/A,,Clear,210,2014-02-18 12:25:00
6:45 AM,24.8,24.8,100,29.52,10.0,SW,5.8,-,N/A,,Clear,230,2014-02-18 12:45:00
7:05 AM,23.0,23.0,100,29.53,10.0,West,5.8,-,N/A,,Clear,280,2014-02-18 13:05:00
7:25 AM,23.0,23.0,100,29.53,10.0,WNW,3.5,-,N/A,,Clear,300,2014-02-18 13:25:00
7:45 AM,23.0,23.0,100,29.54,10.0,West,5.8,-,N/A,,Clear,260,2014-02-18 13:45:00
8:05 AM,30.2,26.6,86,29.55,10.0,WSW,11.5,-,N/A,,Clear,250,2014-02-18 14:05:00
8:25 AM,32.0,26.6,80,29.56,10.0,West,9.2,-,N/A,,Clear,270,2014-02-18 14:25:00
8:45 AM,32.0,24.8,75,29.56,10.0,West,9.2,-,N/A,,Clear,260,2014-02-18 14:45:00
9:05 AM,32.0,26.6,80,29.56,10.0,West,8.1,-,N/A,,Clear,260,2014-02-18 15:05:00
9:25 AM,35.6,26.6,70,29.57,10.0,West,10.4,-,N/A,,Clear,280,2014-02-18 15:25:00
9:45 AM,35.6,26.6,70,29.57,10.0,WNW,11.5,-,N/A,,Clear,290,2014-02-18 15:45:00
10:05 AM,35.6,26.6,70,29.57,10.0,West,13.8,-,N/A,,Clear,280,2014-02-18 16:05:00
10:25 AM,35.6,26.6,70,29.58,10.0,West,11.5,-,N/A,,Clear,280,2014-02-18 16:25:00
10:45 AM,35.6,28.4,75,29.59,10.0,WNW,15.0,-,N/A,,Clear,300,2014-02-18 16:45:00
11:05 AM,35.6,30.2,81,29.61,10.0,WNW,15.0,-,N/A,,Clear,300,2014-02-18 17:05:00
11:25 AM,35.6,32.0,87,29.61,10.0,NW,11.5,-,N/A,,Clear,310,2014-02-18 17:25:00
11:45 AM,35.6,32.0,87,29.61,10.0,NW,11.5,-,N/A,,Clear,310,2014-02-18 17:45:00
12:05 PM,37.4,32.0,81,29.62,10.0,NW,10.4,-,N/A,,Scattered Clouds,310,2014-02-18 18:05:00
12:25 PM,37.4,32.0,81,29.62,10.0,NNW,10.4,-,N/A,,Partly Cloudy,330,2014-02-18 18:25:00
12:45 PM,39.2,33.8,81,29.62,10.0,NW,13.8,-,N/A,,Clear,320,2014-02-18 18:45:00
1:05 PM,39.2,33.8,81,29.63,10.0,NW,13.8,-,N/A,,Clear,320,2014-02-18 19:05:00
1:25 PM,39.2,33.8,81,29.64,10.0,NW,11.5,-,N/A,,Clear,310,2014-02-18 19:25:00
1:45 PM,39.2,33.8,81,29.65,10.0,NW,18.4,23.0,N/A,,Scattered Clouds,310,2014-02-18 19:45:00
2:05 PM,37.4,35.6,93,29.66,10.0,WNW,16.1,24.2,N/A,,Mostly Cloudy,300,2014-02-18 20:05:00
2:25 PM,37.4,33.8,87,29.68,10.0,NW,18.4,-,N/A,,Partly Cloudy,310,2014-02-18 20:25:00
2:45 PM,37.4,33.8,87,29.68,10.0,WNW,15.0,-,N/A,,Clear,300,2014-02-18 20:45:00
3:05 PM,37.4,37.4,100,29.68,10.0,WNW,11.5,-,N/A,,Clear,300,2014-02-18 21:05:00
3:25 PM,37.4,37.4,100,29.69,10.0,WNW,10.4,-,N/A,,Clear,300,2014-02-18 21:25:00
3:45 PM,37.4,37.4,100,29.69,10.0,WNW,13.8,-,N/A,,Clear,290,2014-02-18 21:45:00
4:05 PM,37.4,37.4,100,29.71,10.0,WNW,16.1,20.7,N/A,,Clear,300,2014-02-18 22:05:00
4:25 PM,37.4,37.4,100,29.72,10.0,WNW,16.1,-,N/A,,Partly Cloudy,300,2014-02-18 22:25:00
4:45 PM,37.4,37.4,100,29.74,10.0,WNW,15.0,-,N/A,,Partly Cloudy,300,2014-02-18 22:45:00
5:05 PM,37.4,37.4,100,29.74,10.0,WNW,13.8,-,N/A,,Mostly Cloudy,300,2014-02-18 23:05:00
5:25 PM,37.4,37.4,100,29.76,10.0,WNW,10.4,-,N/A,,Overcast,300,2014-02-18 23:25:00
5:45 PM,37.4,37.4,100,29.77,10.0,WNW,10.4,-,N/A,,Overcast,290,2014-02-18 23:45:00
6:05 PM,35.6,35.6,100,29.78,10.0,NW,9.2,-,N/A,,Overcast,310,2014-02-19 00:05:00
6:25 PM,35.6,35.6,100,29.79,10.0,NW,11.5,-,N/A,,Overcast,310,2014-02-19 00:25:00
6:45 PM,35.6,35.6,100,29.80,10.0,WNW,10.4,-,N/A,,Overcast,300,2014-02-19 00:45:00
7:05 PM,35.6,35.6,100,29.82,10.0,NW,10.4,-,N/A,,Overcast,310,2014-02-19 01:05:00
7:25 PM,33.8,33.8,100,29.83,10.0,WNW,12.7,-,N/A,,Mostly Cloudy,300,2014-02-19 01:25:00
7:45 PM,33.8,33.8,100,29.83,10.0,NW,11.5,-,N/A,,Partly Cloudy,310,2014-02-19 01:45:00
8:05 PM,33.8,33.8,100,29.84,10.0,NW,16.1,-,N/A,,Clear,310,2014-02-19 02:05:00
8:25 PM,32.0,32.0,100,29.84,10.0,NW,10.4,-,N/A,,Clear,310,2014-02-19 02:25:00
8:45 PM,32.0,32.0,100,29.84,10.0,WNW,8.1,-,N/A,,Clear,300,2014-02-19 02:45:00
9:05 PM,32.0,32.0,100,29.84,10.0,West,6.9,-,N/A,,Clear,280,2014-02-19 03:05:00
9:25 PM,32.0,32.0,100,29.85,10.0,West,6.9,-,N/A,,Clear,260,2014-02-19 03:25:00
9:45 PM,32.0,32.0,100,29.83,10.0,West,5.8,-,N/A,,Clear,270,2014-02-19 03:45:00
10:05 PM,32.0,32.0,100,29.84,10.0,West,8.1,-,N/A,,Clear,270,2014-02-19 04:05:00
10:25 PM,32.0,32.0,100,29.84,10.0,West,8.1,-,N/A,,Clear,280,2014-02-19 04:25:00
10:45 PM,32.0,32.0,100,29.84,10.0,West,9.2,-,N/A,,Clear,280,2014-02-19 04:45:00
11:05 PM,32.0,32.0,100,29.84,10.0,West,9.2,-,N/A,,Clear,280,2014-02-19 05:05:00
11:25 PM,32.0,32.0,100,29.83,10.0,West,9.2,-,N/A,,Clear,280,2014-02-19 05:25:00
11:45 PM,32.0,32.0,100,29.83,10.0,West,9.2,-,N/A,,Clear,270,2014-02-19 05:45:00